COSMOS 1844

Last updated on Sun Apr 12 2026 00:02:16 GMT+0000 (Coordinated Universal Time)

1 17973U 87041A 26101.56526308 .00000006 00000+0 28264-4 0 9993 2 17973 70.9009 324.8353 0032081 329.4661 30.4592 14.14564966 8239
UTC large
Height (km)
Speed (km/s)
/
Latitude / Longitude
Inclination (degrees)
Orbital Period (minutes)
Azimuth
Elevation
Range (km)
Doppler Factor

Next 0 passes for location: London (51.5072 / 0.1276)

Sorry there are no passes over London.
COSMOS 1844